International Skating Union - Official Site

Essent ISU World Cup Heerenveen
December 2-4, 2011

Draw | Lap Times | Index | World Cup

Referee: Jan  AUGUSTINUS  (NED)
Starter: Harrie  JANSSEN  (NED)
StartTime: EndTime: Air Temp: Ice Temp: Humidity:
17:10 18:21 14℃ -6℃ 39%
Result 5000m Ladies Division A
Rankings as of Oct 12 2012 5:02PM
Rank: No.: Name: Nation: Time: Behind: Points:
1 20 Martina  SÁBLIKOVÁ CZE CZE 6:58.87200m - 20.61 - (20.6)
600m - 53.23 - (32.6)
1000m - 1:26.23 - (33.0)
1400m - 1:59.35 - (33.1)
1800m - 2:32.46 - (33.1)
2200m - 3:05.60 - (33.1)
2600m - 3:38.54 - (32.9)
3000m - 4:12.06 - (33.5)
3400m - 4:45.45 - (33.3)
3800m - 5:18.75 - (33.3)
4200m - 5:52.13 - (33.3)
4600m - 6:25.39 - (33.2)
5000m - 6:58.87 - (33.4)
100
2 30 Claudia  PECHSTEIN GER GER 7:02.92200m - 20.63 - (20.6)
600m - 52.94 - (32.3)
1000m - 1:26.20 - (33.2)
1400m - 1:59.30 - (33.0)
1800m - 2:32.68 - (33.3)
2200m - 3:05.95 - (33.2)
2600m - 3:39.38 - (33.4)
3000m - 4:12.77 - (33.3)
3400m - 4:46.54 - (33.7)
3800m - 5:20.43 - (33.9)
4200m - 5:54.67 - (34.2)
4600m - 6:29.02 - (34.3)
5000m - 7:02.92 - (33.9)
4.05 80
3 24 Stephanie  BECKERT GER GER 7:04.77200m - 21.48 - (21.4)
600m - 54.22 - (32.7)
1000m - 1:27.21 - (32.9)
1400m - 2:00.11 - (32.9)
1800m - 2:33.15 - (33.0)
2200m - 3:06.47 - (33.3)
2600m - 3:39.99 - (33.5)
3000m - 4:13.97 - (33.9)
3400m - 4:47.96 - (33.9)
3800m - 5:22.02 - (34.0)
4200m - 5:56.27 - (34.2)
4600m - 6:30.88 - (34.6)
5000m - 7:04.77 - (33.8)
5.90 70
4 63 Linda  de VRIES NED NED 7:08.08200m - 20.51 - (20.5)
600m - 53.72 - (33.2)
1000m - 1:27.09 - (33.3)
1400m - 2:00.54 - (33.4)
1800m - 2:34.01 - (33.4)
2200m - 3:07.97 - (33.9)
2600m - 3:41.93 - (33.9)
3000m - 4:16.01 - (34.0)
3400m - 4:50.00 - (33.9)
3800m - 5:24.44 - (34.4)
4200m - 5:58.89 - (34.4)
4600m - 6:33.43 - (34.5)
5000m - 7:08.08 - (34.6)
9.21 60
5 35 Shiho  ISHIZAWA JPN JPN 7:09.46200m - 20.72 - (20.7)
600m - 52.88 - (32.1)
1000m - 1:26.37 - (33.4)
1400m - 1:59.81 - (33.4)
1800m - 2:33.49 - (33.6)
2200m - 3:07.32 - (33.8)
2600m - 3:41.49 - (34.1)
3000m - 4:15.70 - (34.2)
3400m - 4:50.18 - (34.4)
3800m - 5:24.81 - (34.6)
4200m - 5:59.55 - (34.7)
4600m - 6:34.29 - (34.7)
5000m - 7:09.46 - (35.1)
10.59 50
6 6 Cindy  KLASSEN CAN CAN 7:10.76200m - 20.84 - (20.8)
600m - 53.78 - (32.9)
1000m - 1:27.53 - (33.7)
1400m - 2:01.30 - (33.7)
1800m - 2:34.87 - (33.5)
2200m - 3:08.40 - (33.5)
2600m - 3:42.14 - (33.7)
3000m - 4:15.98 - (33.8)
3400m - 4:50.16 - (34.1)
3800m - 5:24.36 - (34.2)
4200m - 5:59.04 - (34.6)
4600m - 6:34.28 - (35.2)
5000m - 7:10.76 - (36.4)
11.89 45
7 54 Janneke  ENSING NED NED 7:12.27200m - 20.29 - (20.2)
600m - 51.73 - (31.4)
1000m - 1:24.36 - (32.6)
1400m - 1:57.64 - (33.2)
1800m - 2:31.01 - (33.3)
2200m - 3:04.58 - (33.5)
2600m - 3:38.42 - (33.8)
3000m - 4:12.88 - (34.4)
3400m - 4:47.69 - (34.8)
3800m - 5:23.01 - (35.3)
4200m - 5:58.85 - (35.8)
4600m - 6:35.35 - (36.4)
5000m - 7:12.27 - (36.9)
13.40 40
8 73 Yevgenia  DMITRIEVA RUS RUS 7:14.57200m - 21.43 - (21.4)
600m - 54.52 - (33.0)
1000m - 1:27.52 - (33.0)
1400m - 2:01.26 - (33.7)
1800m - 2:35.16 - (33.9)
2200m - 3:09.09 - (33.9)
2600m - 3:43.43 - (34.3)
3000m - 4:18.37 - (34.9)
3400m - 4:53.57 - (35.2)
3800m - 5:28.89 - (35.3)
4200m - 6:04.16 - (35.2)
4600m - 6:39.68 - (35.5)
5000m - 7:14.57 - (34.8)
15.70 35
9 91 Jilleanne  ROOKARD USA USA 7:17.06200m - 20.78 - (20.7)
600m - 54.05 - (33.2)
1000m - 1:27.13 - (33.0)
1400m - 2:01.12 - (33.9)
1800m - 2:34.99 - (33.8)
2200m - 3:09.59 - (34.6)
2600m - 3:44.26 - (34.6)
3000m - 4:19.60 - (35.3)
3400m - 4:54.72 - (35.1)
3800m - 5:30.02 - (35.2)
4200m - 6:05.70 - (35.6)
4600m - 6:41.26 - (35.5)
5000m - 7:17.06 - (35.8)
18.19 30
10 34 Eriko  ISHINO JPN JPN 7:20.10200m - 20.79 - (20.7)
600m - 53.62 - (32.8)
1000m - 1:27.10 - (33.4)
1400m - 2:00.93 - (33.8)
1800m - 2:35.09 - (34.1)
2200m - 3:09.65 - (34.5)
2600m - 3:44.67 - (35.0)
3000m - 4:20.12 - (35.4)
3400m - 4:55.78 - (35.6)
3800m - 5:31.59 - (35.8)
4200m - 6:07.81 - (36.2)
4600m - 6:43.97 - (36.1)
5000m - 7:20.10 - (36.1)
21.23 25
11 75 Olga  GRAF RUS RUS 7:21.35200m - 21.99 - (21.9)
600m - 55.30 - (33.3)
1000m - 1:29.34 - (34.0)
1400m - 2:04.02 - (34.6)
1800m - 2:38.45 - (34.4)
2200m - 3:13.18 - (34.7)
2600m - 3:48.08 - (34.9)
3000m - 4:23.41 - (35.3)
3400m - 4:58.76 - (35.3)
3800m - 5:34.38 - (35.6)
4200m - 6:09.77 - (35.3)
4600m - 6:45.54 - (35.7)
5000m - 7:21.35 - (35.8)
22.48 20
12 33 Masako  HOZUMI JPN JPN DQ200m - 21.07 - (21.0)
600m - 53.18 - (32.1)
1000m - 1:25.72 - (32.5)
1400m - 1:58.64 - (32.9)
1800m - 2:31.74 - (33.1)
2200m - 3:04.81 - (33.0)
2600m - 3:38.13 - (33.3)
3000m - 4:11.77 - (33.6)
3400m - 4:45.45 - (33.6)
3800m - 5:20.28 - (34.8)
4200m - 5:55.29 - (35.0)
4600m - 6:30.05 - (34.7)
5000m - 7:04.82 - (34.7)
0